Regional Weather Roundup
Issued by NWS Charleston, SC

Current Version | Previous Version | Text Only | Print | Product List | Glossary Off
Versions: 1 2 3 4 5 6 7 8 9 10 11 12 13 14 15 16 17 18 19 20 21 22 23 24 25 26 27 28 29 30 31 32 33 34 35 36 37 38 39 40 41 42 43 44 45 46 47 48 49 50

000
ASUS42 KCHS 032113
RWRCHS

REGIONAL WEATHER ROUNDUP
NATIONAL WEATHER SERVICE CHARLESTON SC
500 PM EDT TUE MAY 03 2016

NOTE: "FAIR" INDICATES FEW OR NO CLOUDS BELOW 12,000 FEET WITH NO
SIGNIFICANT WEATHER AND/OR OBSTRUCTIONS TO VISIBILITY.

NOT ALL STATIONS ARE QUALITY CONTROLLED. USE DATA WITH CAUTION...
ESPECIALLY DEWPOINT OBSERVATIONS.

SCZ027-030-031-034>040-042>050-032200-
...SOUTHEAST SOUTH CAROLINA...

CITY           SKY/WX    TMP DP  RH WIND       PRES   REMARKS
N CHARLESTON   MOSUNNY   86  65  49 SW10G20   29.76F
WATERFRONT PRK   N/A     85  68  56 W6        29.75F
MOUNT PLEASANT FAIR      84  73  70 CALM      29.76S HX  91
JOHNS ISLAND   MOCLDY    82  73  74 S14       29.77S
PINOPOLIS        N/A     84  68  58 W12       29.67F
MONCKS CORNER  FAIR      84  59  42 W6        29.76S
SUMMERVILLE    FAIR      88  64  45 W8        29.77F
BEAUFORT MCAS  PTSUNNY   88  64  44 W10       29.78F
BEAUFORT ARPT  FAIR      88  61  40 W10G18    29.78S
HILTON HEAD IS MOSUNNY   84  63  48 SW7G16    29.80
WALTERBORO     PTCLDY    86  63  45 SW8       29.77F
ALLENDALE      FAIR      79  68  69 NW9       29.78F

...SOUTHERN MIDLANDS AND PEE DEE...

CITY           SKY/WX    TMP DP  RH WIND       PRES   REMARKS
GEORGETOWN     MOCLDY    82  63  51 W8G18     29.76S
KINGSTREE      FAIR      81  64  57 W7        29.76S
ORANGEBURG     LGT RAIN  80  66  62 W7        29.77F
BARNWELL       FAIR      79  72  78 W8        29.79F
AIKEN          CLOUDY    73  66  78 S13       29.83R
MANNING        FAIR      81  63  54 W6        29.76S
COLUMBIA       CLOUDY    85  62  46 W13       29.75F
SUMTER         MOSUNNY   80  67  63 SW10G20   29.74S
FLORENCE       MOSUNNY   83  64  52 W13       29.74F
MYRTLE BEACH   MOSUNNY   79  64  61 SW12      29.79S
N MYRTLE BEACH TSTM      73  69  87 SE9       29.78S

$$

GAZ063-065-086>088-099>101-113>116-118-119-134>141-150-032200-
...SOUTHEAST GEORGIA...

CITY           SKY/WX    TMP DP  RH WIND       PRES   REMARKS
SAVANNAH ARPT  MOSUNNY   88  64  44 W8G20     29.78F
HUNTER AAF     MOSUNNY   88  69  53 W10G20    29.76F HX  91
FORT STEWART   MOSUNNY   87  66  50 SW8       29.77F
STATESBORO     PTSUNNY   87  69  55 W10       29.79F HX  90
SYLVANIA       CLOUDY    84  68  59 W6        29.79F
CLAXTON        FAIR      85  69  57 W8        29.79F

...CSRA...CENTRAL AND FAR SOUTHEAST GEORGIA...

CITY           SKY/WX    TMP DP  RH WIND       PRES   REMARKS
THOMSON        CLOUDY    82  68  62 SW6       29.83S
AUGUSTA-BUSH   PTSUNNY   75  68  78 SW8       29.78F
AUGUSTA-DANIEL LGT RAIN  78  65  63 SW7       29.80F
SWAINSBORO     MOCLDY    82  63  51 W10       29.81S
VIDALIA        PTSUNNY   82  64  54 W6        29.80S
EASTMAN        MOCLDY    84  65  52 W6        29.84S
HAZLEHURST     FAIR      87  63  44 W7        29.80S
ALMA           MOSUNNY   84  70  62 S9        29.81F
WAYCROSS       CLOUDY    82  69  64 NW5       29.81F
JESUP          FAIR      86  68  54 W8        29.81F
BAXLEY         FAIR      88  64  45 W7        29.80F
BRUNSWICK      PTSUNNY   90  68  48 NW6       29.81F HX  93
SAINT SIMONS   MOSUNNY   87  64  46 W12G18    29.79F

$$

SCZ027-028-034-036>038-045-046-048>050-GAZ119-141-032200-
...LAKE AND SUPPLEMENTAL COASTAL OBSERVATIONS...

STATION/POSITION TIME  TEMP    WIND        PRES    WAVE   SWELL
                       AIR SEA DIR/SP/G            HT/PER HT/PER/DIR
                 (UTC) (F)     (DEG/KT/KT) (MB)    (FT/S) (FT/S/D)
WINYAH BAY       1945   76     130/  9     1008.0
LAKE MURRAY      2000   79     260/ 11/ 16 1007.5F
ACE BASIN NERRS  NOT AVBL
FORT PULASKI     2000   82 75  270/  7/  9 1009.3F
SAPELO ISLAND    2000   85     270/  8     1009.0F

$$

ANZ835-935-AMZ111-154-330-350-352-354-370-450-454-472-032200-
...C-MAN AND BUOY OBSERVATIONS...

STATION/POSITION TIME  TEMP    WIND        PRES    WAVE   SWELL
                       AIR SEA DIR/SP/G            HT/PER HT/PER/DIR
                 (UTC) (F)     (DEG/KT/KT) (MB)    (FT/S) (FT/S/D)
BUOY 41004       2050   75 75  200/ 14/ 16 1008.2F   5/ 7   3/ 7
BUOY 41008       NOT AVBL
FOLLY BEACH CMAN 2100   75     210/ 16/ 18 1008.5F
CAPERS NEARSHORE 2008   75 74  200/ 12/ 16 1007.8F
FRIPP NEARSHORE  2008   76 73  210/ 12/ 17 1008.1F


STATION/POSITION TIME  TEMP    WIND        PRES    WAVE   SWELL
                       AIR SEA DIR/SP/G            HT/PER HT/PER/DIR
                 (UTC) (F)     (DEG/KT/KT) (MB)    (FT/S) (FT/S/D)
5E ST. MARYS GA  2021      75                N/A     3/ 6
FRYING PAN BUOY  2000   74 74  210/  8/ 12 1008.6F
BUOY 41025       2050   72 72  200/ 17/ 19 1008.6F   4/ 9   2/140/ 9
CAPE LOOKOUT NC  2100   70     180/ 13/ 14 1008.7R
BUOY 41002       2050   67 74  310/ 12/ 19 1013.4R   4/ 6   2/190/ 7
BUOY 41010       2020   78 79  210/ 10/ 12 1012.4F
ST AUGUSTINE FL  2100   76 71  130/ 11/ 11 1011.2S


$$



USA.gov is the U.S. government's official web portal to all federal, state and local government web resources and services.